Regional Weather Roundup
Issued by NWS

Home | Current Version | Previous Version | Text Only | Print | Product List | Glossary Off
Versions: 1 2 3 4 5 6 7 8 9 10 11 12 13 14 15 16 17 18 19 20 21 22 23 24 25 26 27 28

000
ASUS45 KTFX 300110
RWRMT
MONTANA REGIONAL WEATHER ROUNDUP
NATIONAL WEATHER SERVICE GREAT FALLS MT
700 PM MDT SUN MAY 29 2016

NOTE: "FAIR" INDICATES FEW OR NO CLOUDS BELOW 12000 FEET WITH NO
SIGNIFICANT WEATHER AND/OR OBSTRUCTIONS TO VISIBILITY.

MTZ001>007-043-300200-
WEST OF THE DIVIDE

CITY           SKY/WX    TMP DP  RH WIND       PRES   REMARKS
KALISPELL      MOSUNNY   64  45  49 SE16      29.91F
MISSOULA       LGT RAIN  60  47  61 S15       29.95S
BUTTE          CLOUDY    63  29  27 NW8       30.00S
MULLAN PASS    MOSUNNY   51  31  46 W9G18     30.04S
ANACONDA         N/A     64  36  34 NE8       29.99R
DEER LODGE       N/A     64  34  32 NE6G17    29.98F
EUREKA           N/A     61  45  55 NW9       29.90R
HAMILTON         N/A     64  41  42 NW3       29.96R
LIBBY            N/A     66  36  32 S6        29.92R
$$

MTZ008-052>055-300200-
SOUTHWEST MONTANA

CITY           SKY/WX    TMP DP  RH WIND       PRES   REMARKS
BOZEMAN        CLOUDY    69  36  29 CALM      29.95F
DILLON         CLOUDY    67  33  28 SW8       29.96F
W YELLOWSTONE  CLOUDY    63  25  23 SW12      30.08F
ENNIS          MOSUNNY   64  37  36 S9        30.04F
$$

MTZ009-010-012-014-046-048-049-054-300200-
EAST SLOPES AND CENTRAL MONTANA

CITY           SKY/WX    TMP DP  RH WIND       PRES   REMARKS
CUT BANK         N/A     61  38  42 SW16      29.94S
GREAT FALLS    MOSUNNY   64  41  42 S9        29.94S
MALMSTROM AFB  MOSUNNY   65  42  43 S10       29.94F
HELENA         MOSUNNY   70  38  31 NE12      29.95F
CHOTEAU          N/A     61  43  51 N7        29.99R
$$

MTZ011-013-016-021-045-047-050-051-300200-
NORTH CENTRAL MONTANA

CITY           SKY/WX    TMP DP  RH WIND       PRES   REMARKS
HAVRE          CLOUDY    69  42  37 SW6       29.88F
LEWISTOWN      SUNNY     68  41  37 N8        29.96S
N BAR RANCH    PTSUNNY   66  41  39 SE6       29.99S
CHINOOK          N/A     73  37  27 CALM      29.89S
$$

MTZ017>020-022>027-061-062-300200-
NORTHEAST MONTANA

CITY           SKY/WX    TMP DP  RH WIND       PRES   REMARKS
GLASGOW        SUNNY     73  36  25 W13       29.90S
JORDAN           N/A     75  41  29 NW6       29.91F
SIDNEY         SUNNY     76  39  26 W12       29.90F
WOLF POINT     SUNNY     75  35  23 W6        29.91F
POPLAR           N/A     73  36  25 W9        29.91F
$$

MTZ028>42-056>058-300200-
SOUTHCENTRAL AND SOUTHEAST MONTANA

CITY           SKY/WX    TMP DP  RH WIND       PRES   REMARKS
BAKER          SUNNY     74  40  29 W6        29.96F
BILLINGS       MOSUNNY   74  38  27 E9        29.92F
LIVINGSTON     CLOUDY    68  37  32 N9        29.95S
MILES CITY     SUNNY     77  39  25 W5        29.91F
FORSYTH          N/A     75  41  29 NE5       29.91S
$$

REGIONAL REPORTS...DAKOTAS

CITY           SKY/WX    TMP DP  RH WIND       PRES   REMARKS
WILLISTON      SUNNY     75  34  22 NW12      29.91F
MINOT          SUNNY     76  40  27 W9        29.91F
DICKINSON      CLOUDY    74  36  25 N7        29.93S
BEACH            N/A     73  37  27 NW12      29.98S
CROSBY           N/A     70  39  32 W12       29.93S
WATFORD CITY     N/A     75  36  23 NW8       29.92F
BISMARCK       SUNNY     77  45  32 SW5       29.92F
GRAND FORKS    SUNNY     72  50  45 NW6       29.90R
FARGO          SUNNY     76  46  34 NW6       29.91S
BUFFALO SD       N/A     74  48  39 SE14      29.90S
RAPID CITY     SUNNY     73  52  47 E9        29.96F
$$

REGIONAL REPORTS...WYOMING/IDAHO/WASHINGTON

CITY           SKY/WX    TMP DP  RH WIND       PRES   REMARKS
GILLETTE       SUNNY     73  36  25 CALM      29.98F
SHERIDAN       SUNNY     74  43  32 E8        29.94F
BUFFALO WY     MOSUNNY   72  39  30 E7        30.00S
CODY           CLOUDY    72  36  26 SW10      29.97S
YELLOWSTONE LA   N/A     55  26  32 VRB6      30.18R
IDAHO FALLS    CLOUDY    73  37  27 S18       29.98F
SALMON         PTSUNNY   72  37  28 N5        29.90F
BOISE          MOSUNNY   79  30  16 NW12G17   29.92F
SPOKANE        MOSUNNY   69  30  23 W18G29    29.95S
$$

REGIONAL REPORTS...ALBERTA

CITY           SKY/WX    TMP DP  RH WIND       PRES   REMARKS
EDMONTON       LGT RAIN  54  43  66 N21       29.88R
CALGARY        PTSUNNY   57  36  44 N16G23    29.87R
LETHBRIDGE     PTSUNNY   64  41  42 SE5       29.85F
MEDICINE HAT   PTSUNNY   68  37  32 SW13      29.84S
WATERTON GATE    N/A     59  36  41 SW9         N/A
CARDSTON         N/A     64  36  34 SW10G17     N/A
MILK RIVER       N/A     63  39  42 SW14G21     N/A
$$

REGIONAL REPORTS...SASKATCHEWAN

CITY           SKY/WX    TMP DP  RH WIND       PRES   REMARKS
SWIFT CURRENT  SUNNY     68  41  37 W10G17    29.86F
REGINA         MOSUNNY   70  39  32 W9        29.88S
SASKATOON      MOSUNNY   68  43  40 NW9       29.87S
CYPRESS HILLS    N/A     63  34  34 SW8         N/A
VAL MARIE        N/A     70  34  26 W12         N/A
ROCKGLEN         N/A     66  39  37 SW12        N/A
ASSINIBOIA       N/A     64  43  45 E10         N/A
$$




USA.gov is the U.S. government's official web portal to all federal, state and local government web resources and services.